If you wish to contribute or participate in the discussions about articles you are invited to join SKYbrary as a registered user

 Actions

Oshima Airport

From SKYbrary Wiki

RJTO
Airport
ICAO: RJTO – IATA: OIM
Summary
Name Oshima Airport
Region Asia and Pacific
Territory Japan JP.gif
Location Oshima, Tokyo
Serving Tokyo
Elevation 37.795 m
124 ft37.795 m
Coordinates 34° 46' 55.04" N, 139° 21' 41.39" E
Runways
Designator Length Width Surface ROPS
3/21 1800 m5,905.512 ft
46 m150.919 ft
ASP yes/yes


METAR
Observation RJTO 150300Z 05013KT 9999 FEW010 SCT020 BKN050 20/14 Q1020
Station Oshima Airport
Date/Time 15 October 2019 03:00:00
Wind direction 50°
Wind speed 13 kts
Lowest cloud amount few clouds
Temperature 20°C
Dew point 14°C
Humidity 68%
QNH 1020 hPa
Weather condition n/a

Oshima Airport is an airport located on the island of Izu Ōshima, Tokyo, Japan.

Climatology

Humid Sub-tropical climate (Köppen climate classification Cfa)

Maps

Terrain

Loading map...

Airport Layout

Loading map...


Accidents & Serious Incidents at or in vicinity of RJTO

None on SKYbrary